Regional Weather Roundup
Issued by NWS

Home | Current Version | Previous Version | Graphics & Text | Print | Product List | Glossary On
Versions: 1 2 3 4 5 6 7 8 9 10 11 12 13 14 15 16 17 18 19 20 21 22 23 24 25 26 27 28 29 30 31 32 33 34 35 36 37 38 39 40 41 42 43 44 45 46 47 48 49 50
000
ASUS43 KMKX 281500
RWRWI

WISCONSIN REGIONAL WEATHER ROUNDUP
NATIONAL WEATHER SERVICE MILWAUKEE/SULLIVAN WI
1000 AM CDT TUE JUL 28 2015

NOTE: "FAIR" INDICATES FEW OR NO CLOUDS BELOW 12,000 FEET WITH NO
SIGNIFICANT WEATHER AND/OR OBSTRUCTIONS TO VISIBILITY.

WIZ001-002-006>008-014>016-023>028-281600-
NORTHWEST WISCONSIN

CITY           SKY/WX    TMP DP  RH WIND       PRES   REMARKS
SUPERIOR ARPT  CLOUDY    74  71  87 SE18      29.73F
ASHLAND        CLOUDY    75  67  76 S13G21    29.85F
HAYWARD        LGT RAIN  72  68  87 S14G23    29.87F
SIREN          LGT RAIN  71  69  93 S8        29.79F
CUMBERLAND     RAIN      68  68 100 SE13G18   29.86F
RICE LAKE      RAIN      70  67  93 SE15      29.91F
CHETEK         HVY RAIN  69  68  98 E7        29.93F
LADYSMITH      CLOUDY    71  64  80 S7        29.98R
EAU CLAIRE     RAIN      70  67  90 S12       29.95S FOG
MENOMONIE      RAIN      72  71  95 SE13      29.94S
NEW RICHMOND   LGT RAIN  71  70  97 SE18G25   29.78F
OSCEOLA        LGT RAIN  72  72 100 SE21G32   29.78F
$$

WIZ003>005-009-010-017-018-281600-
NORTH CENTRAL WISCONSIN

CITY           SKY/WX    TMP DP  RH WIND       PRES   REMARKS
MANITOWISH WTR CLOUDY    70  64  81 S10       29.98R
ARBOR VITAE    CLOUDY    72  64  74 S9        29.99R
WOODRUFF       CLOUDY    72  64  74 S9        29.99R
RHINELANDER    CLOUDY    73  62  68 S9        30.01S
EAGLE RIVER    CLOUDY    71  60  67 S7        30.01R
LAND O LAKES   CLOUDY    73  61  65 S10G16    30.01R
PHILLIPS       CLOUDY    71  64  78 S7        29.96F
TOMAHAWK       CLOUDY    72  63  73 S5        30.00S
MEDFORD        CLOUDY    71  64  79 S12       30.00S
MERRILL        NOT AVBL
$$

WIZ029-030-035-036-043>047-281600-
CENTRAL WISCONSIN

CITY           SKY/WX    TMP DP  RH WIND       PRES   REMARKS
WAUSAU         PTSUNNY   78  63  59 S13       29.99S HX  80
MOSINEE        NOT AVBL
MARSHFIELD     CLOUDY    75  63  66 S7        30.01R
STEVENS POINT  CLOUDY    76  62  61 S8        30.01R
WAUPACA        PTSUNNY   80  64  58 S8        30.01R HX  82
WAUTOMA        NOT AVBL
WISC RAPIDS    CLOUDY    79  63  57 SW9       30.02R HX  80
CAMP DOUGLAS   NOT AVBL
$$

WIZ011>013-019>022-031-037>040-048>050-281600-
NORTHEAST WISCONSIN

CITY           SKY/WX    TMP DP  RH WIND       PRES   REMARKS
ANTIGO         PTSUNNY   73  64  72 S12       30.03S
SHAWANO        MOSUNNY   82  65  57 S6        30.01R HX  84
OCONTO         MOSUNNY   78  66  66 S7        30.01R HX  80
STURGEON BAY   MOSUNNY   79  63  57 S10       30.04S HX  80
GREEN BAY      SUNNY     81  67  62 S10       30.01S HX  83
MANITOWOC      NOT AVBL
APPLETON       PTSUNNY   79  63  57 S9        30.02R HX  80
CLINTONVILLE   PTSUNNY   77  64  65 S7        30.00S
OSHKOSH        MOSUNNY   82  64  54 S13       30.01R HX  83
$$

WIZ032>034-041-042-053>061-281600-
SOUTHWEST WISCONSIN

CITY           SKY/WX    TMP DP  RH WIND       PRES   REMARKS
LA CROSSE      RAIN      71  69  93 N5        29.97R FOG
SPARTA         RAIN      72  64  76 CALM      30.00R
VIROQUA        CLOUDY    70  67  90 S6        30.01R
BOSCOBEL       LGT RAIN  74  70  87 CALM      30.00R FOG
PRAIRIE DU CHI LGT RAIN  71  68  89 E7        29.98R
PLATTEVILLE    CLOUDY    76  70  82 S6        30.01R
$$

WIZ056-057-062-063-064-067-068-281600-
SOUTH CENTRAL WISCONSIN

CITY           SKY/WX    TMP DP  RH WIND       PRES   REMARKS
REEDSBURG      MOSUNNY   77  65  66 S6        30.00R
BARABOO/DELLS  MOSUNNY   80  61  52 S13       30.00R HX  81
LONE ROCK      NOT AVBL
MINERAL POINT  PTSUNNY   77  68  73 S8        30.01R
MADISON        PTSUNNY   81  64  56 S13       30.00R HX  82
MIDDLETON      PTSUNNY   80  64  57 S8        30.01R HX  82
WATERTOWN      PTSUNNY   78  70  75 SE5       30.00R HX  81
MONROE         MOSUNNY   77  66  69 S8        30.01R
JANESVILLE     NOT AVBL
$$

WIZ051-052-058>065-066-070>072-281600-
SOUTHEAST WISCONSIN

CITY           SKY/WX    TMP DP  RH WIND       PRES   REMARKS
MILWAUKEE      MOSUNNY   82  66  58 SE8       30.00R HX  84
WAUKESHA       NOT AVBL
MILWAUKEE/TIMM SUNNY     82  61  47 S8        30.01R HX  83
RACINE         SUNNY     80  66  62 S10       30.02R HX  82
BURLINGTON     SUNNY     79  64  60 S5        29.99F HX  81
KENOSHA        SUNNY     83  66  56 S9        30.00S HX  85
FOND DU LAC    MOSUNNY   83  66  56 S10       30.01R HX  85
SHEBOYGAN      SUNNY     81  66  60 S10       30.01S HX  83
WEST BEND      SUNNY     79  64  61 CALM      30.00F HX  81
JUNEAU           N/A     79  67  66 SE10      30.02R HX  81
$$

LSZ147-162-281600-
LAKE SUPERIOR

STATION/POSITION TIME  TEMP    WIND        PRES    WAVE
                       AIR SEA DIR/SP/G            HT/PER
                 (UTC) (F)     (DEG/KT/KT) (MB)    (FT/S)
W MID LAKE BUOY  1350   65 62  140/ 10/ 10 1012.4R   1/ 3
DEVILS ISLAND    1400   73     160/  8/ 10 1011.1F
PORT WING        1240   74     150/  6/ 13 1010.8F
SAXON HARBOR     1440   75                 1011.2F
$$

LMZ867-665-643>646-281600-
LAKE MICHIGAN

STATION/POSITION TIME  TEMP    WIND        PRES    WAVE
                       AIR SEA DIR/SP/G            HT/PER
                 (UTC) (F)     (DEG/KT/KT) (MB)    (FT/S)
CHAMBERS ISLAND  1400   79     160/  4/  7 1015.9S
S GREEN BAY BUOY 1400   76 76  170/  8/ 10 1017.4R
N MID LAKE BUOY  1350   71 70  150/  2/  2 1016.1F   0
NORTHPORT PIER   1400   76     150/  4/  9 1016.3R
SISTER BAY       1329   81     200/  7/  8   N/A
ALGOMA LAKESHORE 1412             CALM       N/A
KEWAUNEE LAKESHO 1400   70     160/  2/  3 1015.8R
SHEBOYGAN LAKESH 1400   71     150/  6/  7 1016.1R
PORT WASHINGTON  1440   76     120/  3/  4 1016.6S
ATWATER BUOY     1400   72     150/  8/ 10 1017.2F
MILWAUKEE LAKESH 1400   72     130/  9/ 10   N/A
KENOSHA   LAKESH 1400   73     160/  7/  8 1015.2F
$$

TC  - TEMPERATURE IN CELSIUS
VSB - VISIBILITY IN STATUTE MILES
WCI - WIND CHILL INDEX
HX  - HEAT INDEX




USA.gov is the U.S. government's official web portal to all federal, state and local government web resources and services.